Farmington, NM

11:32 PM MDT on September 21, 2017 (GMT -0600)
Four Corners Regional

Weather History for KFMN - June, 2013

Change the Weather History Date:

Tuesday, June 25, 2013

  Actual Average Record
Temperature  
Mean Temperature 70 °F -  
Max Temperature 90 °F 90 °F 99 °F (2012)
Min Temperature 51 °F 53 °F 45 °F (1993)
Cooling Degree Days 6    
Growing Degree Days 20 (Base 50)    
Moisture  
Dew Point 21 °F    
Average Humidity 13    
Maximum Humidity 23    
Minimum Humidity 4    
Precipitation  
Precipitation 0.00 in - - ()
Sea Level Pressure  
Sea Level Pressure 29.90 in    
Wind  
Wind Speed 7 mph (WNW)    
Max Wind Speed 13 mph    
Max Gust Speed 22 mph    
Visibility 10 miles    
Events      
Averages and records for this station are not official NWS values.
T = Trace of Precipitation, MM = Missing Value Source: NWS Daily Summary

Daily Weather History Graph

Daily Weather History Graph

Search for Another Location

Airport or City:

Trip Planner

Search our weather history database for the weather conditions in past years. The results will help you decide how hot, cold, wet, or windy it might be!

Date:

Astronomy

Jun. 25, 2013 Rise Set
Actual Time 5:55 AM MDT 8:35 PM MDT
Civil Twilight 5:24 AM MDT 9:06 PM MDT
Nautical Twilight 4:46 AM MDT 9:44 PM MDT
Astronomical Twilight 4:03 AM MDT 10:27 PM MDT
Moon 10:28 PM MDT (6/25) 8:34 AM MDT (6/25)
Length of Visible Light 15h 41m
Length of Day
14h 40m
Waning Gibbous, 92% of the Moon is Illuminated
Jun 25
Waning Gibbous
Jun 29
Last Quarter
Jul 8
New
Jul 15
First Quarter
Jul 22
Full

Hourly Weather History & Observations

Time (MDT) Temp. Dew Point Humidity Pressure Visibility Wind Dir Wind Speed Gust Speed Precip Events Conditions
12:53 AM 66.9 °F 12.9 °F 12% 29.84 in 10.0 mi WSW 12.7 mph 18.4 mph N/A   Clear
1:53 AM 64.0 °F 12.9 °F 14% 29.85 in 10.0 mi NW 5.8 mph - N/A   Clear
2:53 AM 64.9 °F 12.9 °F 13% 29.86 in 10.0 mi WNW 5.8 mph - N/A   Clear
3:53 AM 61.0 °F 14.0 °F 16% 29.86 in 10.0 mi West 6.9 mph - N/A   Clear
4:53 AM 62.1 °F 15.1 °F 16% 29.88 in 10.0 mi West 3.5 mph - N/A   Clear
5:53 AM 54.0 °F 17.1 °F 23% 29.93 in 10.0 mi East 3.5 mph - N/A   Clear
6:53 AM 57.0 °F 19.0 °F 23% 29.94 in 10.0 mi ENE 3.5 mph - N/A   Clear
7:53 AM 63.0 °F 21.9 °F 21% 29.95 in 10.0 mi East 5.8 mph - N/A   Clear
8:53 AM 68.0 °F 21.0 °F 17% 29.97 in 10.0 mi ESE 4.6 mph - N/A   Clear
9:53 AM 73.9 °F 21.0 °F 14% 29.95 in 10.0 mi Calm Calm - N/A   Clear
10:53 AM 78.1 °F 23.0 °F 13% 29.94 in 10.0 mi SW 11.5 mph - N/A   Clear
11:53 AM 82.0 °F 26.1 °F 13% 29.94 in 10.0 mi WNW 11.5 mph 17.3 mph N/A   Clear
12:53 PM 84.0 °F 25.0 °F 12% 29.92 in 10.0 mi WNW 10.4 mph 17.3 mph N/A   Clear
1:53 PM 84.9 °F 24.1 °F 11% 29.92 in 10.0 mi West 9.2 mph 20.7 mph N/A   Clear
2:53 PM 86.0 °F 25.0 °F 11% 29.91 in 10.0 mi SW 9.2 mph 21.9 mph N/A   Clear
3:53 PM 88.0 °F 24.1 °F 10% 29.89 in 10.0 mi SW 9.2 mph 19.6 mph N/A   Clear
4:53 PM 88.0 °F 24.1 °F 10% 29.87 in 10.0 mi Variable 5.8 mph 16.1 mph N/A   Clear
5:53 PM 90.0 °F 25.0 °F 10% 29.87 in 10.0 mi NW 6.9 mph - N/A   Clear
6:53 PM 88.0 °F 25.0 °F 10% 29.86 in 10.0 mi WNW 4.6 mph - N/A   Clear
7:53 PM 86.0 °F 24.1 °F 10% 29.86 in 10.0 mi West 4.6 mph - N/A   Clear
8:53 PM 79.0 °F 23.0 °F 13% 29.87 in 10.0 mi NNW 5.8 mph - N/A   Clear
9:53 PM 72.0 °F 24.1 °F 17% 29.90 in 10.0 mi NNE 5.8 mph - N/A   Clear
10:53 PM 69.1 °F 25.0 °F 19% 29.91 in 10.0 mi NNE 8.1 mph - N/A   Clear
11:53 PM 68.0 °F 25.0 °F 20% 29.91 in 10.0 mi NNE 4.6 mph - N/A   Clear